Regional Weather Roundup
Issued by NWS

Home | Current Version | Previous Version | Graphics & Text | Print | Product List | Glossary On
Versions: 1 2 3 4 5 6 7 8 9 10 11 12 13 14 15 16 17 18 19 20 21 22 23 24 25 26 27 28 29 30 31 32 33 34 35 36 37 38 39 40 41 42 43 44 45 46 47 48 49 50
000
ASUS43 KBIS 250410
RWRND
NORTH DAKOTA REGIONAL WEATHER ROUNDUP
NATIONAL WEATHER SERVICE EASTERN NORTH DAKOTA/GRAND FORKS ND
1100 PM CDT WED MAY 24 2017

  NOTE: "FAIR" INDICATES FEW OR NO CLOUDS BELOW 12,000 FEET WITH NO
  SIGNIFICANT WEATHER AND/OR OBSTRUCTIONS TO VISIBILITY.

NDZ001>003-009>011-017-250500-
...NORTHWEST NORTH DAKOTA...

CITY           SKY/WX    TMP DP  RH WIND       PRES   REMARKS
WILLISTON      LGT RAIN  56  52  86 S6        29.41R
MINOT          MOCLDY    64  42  44 SE13      29.40R
MINOT AFB      MOCLDY    62  43  49 SE14      29.39R
$$

NDZ018>021-031>035-040>046-250500-
...SOUTHWEST NORTH DAKOTA...

CITY           SKY/WX    TMP DP  RH WIND       PRES   REMARKS
BISMARCK       FAIR      60  42  51 SE16G23   29.40S
DICKINSON      RAIN      58  43  57 S12       29.39R
GARRISON         N/A     60  40  47 SE16      29.39R
HETTINGER      MOCLDY    61  39  44 SE16      29.35F
$$

NDZ004>008-012>016-024-026-027-054-250500-
...NORTHEAST NORTH DAKOTA...

CITY           SKY/WX    TMP DP  RH WIND       PRES   REMARKS
GRAND FORKS    FAIR      57  43  59 SE13      29.60S
GRAND FORKS AF FAIR      55  42  61 SE12      29.60S
DEVILS LAKE    FAIR      55  44  66 SE17      29.56R
$$

NDZ022-023-025-028>030-036>039-047>053-250500-
...SOUTHEAST NORTH DAKOTA...

CITY           SKY/WX    TMP DP  RH WIND       PRES   REMARKS
JAMESTOWN      FAIR      54  44  69 SE21G28   29.52F
FARGO          FAIR      56  43  61 SE16      29.62F
WAHPETON       FAIR      54  43  66 SE12      29.65F
$$



USA.gov is the U.S. government's official web portal to all federal, state and local government web resources and services.